Time,TemperatureF,DewpointF,PressureIn,WindDirection,WindDirectionDegrees,WindSpeedMPH,WindSpeedGustMPH,Humidity,HourlyPrecipIn,Conditions,Clouds,dailyrainin,SoftwareType,DateUTC
2013-08-16 00:00:00,66.0,19.0,-100.00,SSW,211,3.0,6.0,16,-99.99,,,-99.99,,2013-08-16 06:00:00,
2013-08-16 01:00:00,66.0,19.0,-100.00,SSW,201,4.0,6.0,16,-99.99,,,-99.99,,2013-08-16 07:00:00,
2013-08-16 01:42:00,66.0,19.0,-100.00,SSW,201,4.0,6.0,16,-99.99,,,-99.99,,2013-08-16 07:42:00,
2013-08-16 01:52:00,66.0,19.0,-100.00,SSW,201,4.0,6.0,16,-99.99,,,-99.99,,2013-08-16 07:52:00,
2013-08-16 02:00:00,67.0,16.0,-100.00,SSW,201,4.0,7.0,14,-99.99,,,-99.99,,2013-08-16 08:00:00,
2013-08-16 02:42:00,67.0,16.0,-100.00,SSW,201,4.0,7.0,14,-99.99,,,-99.99,,2013-08-16 08:42:00,
2013-08-16 02:52:00,67.0,16.0,-100.00,SSW,201,4.0,7.0,14,-99.99,,,-99.99,,2013-08-16 08:52:00,
2013-08-16 03:00:00,66.0,16.0,-100.00,SW,224,2.0,7.0,14,-99.99,,,-99.99,,2013-08-16 09:00:00,
2013-08-16 03:42:00,66.0,16.0,-100.00,SW,224,2.0,7.0,14,-99.99,,,-99.99,,2013-08-16 09:42:00,
2013-08-16 03:53:00,66.0,16.0,-100.00,SW,224,2.0,7.0,14,-99.99,,,-99.99,,2013-08-16 09:53:00,
2013-08-16 04:00:00,66.0,18.0,-100.00,SW,236,4.0,11.0,16,-99.99,,,-99.99,,2013-08-16 10:00:00,
2013-08-16 04:42:00,66.0,18.0,-100.00,SW,236,4.0,11.0,16,-99.99,,,-99.99,,2013-08-16 10:42:00,
2013-08-16 04:52:00,66.0,18.0,-100.00,SW,236,4.0,11.0,16,-99.99,,,-99.99,,2013-08-16 10:52:00,
2013-08-16 05:00:00,66.0,22.0,-100.00,SW,233,6.0,14.0,18,-99.99,,,-99.99,,2013-08-16 11:00:00,
2013-08-16 05:42:00,66.0,22.0,-100.00,SW,233,6.0,14.0,18,-99.99,,,-99.99,,2013-08-16 11:42:00,
2013-08-16 05:52:00,66.0,22.0,-100.00,SW,233,6.0,14.0,18,-99.99,,,-99.99,,2013-08-16 11:52:00,
2013-08-16 06:00:00,66.0,22.0,-100.00,WSW,237,5.0,14.0,18,-99.99,,,-99.99,,2013-08-16 12:00:00,
2013-08-16 06:42:00,66.0,22.0,-100.00,WSW,237,5.0,14.0,18,-99.99,,,-99.99,,2013-08-16 12:42:00,
2013-08-16 06:52:00,66.0,22.0,-100.00,WSW,237,5.0,14.0,18,-99.99,,,-99.99,,2013-08-16 12:52:00,
2013-08-16 07:00:00,66.0,22.0,-100.00,WSW,237,3.0,10.0,18,-99.99,,,-99.99,,2013-08-16 13:00:00,
2013-08-16 07:42:00,66.0,22.0,-100.00,WSW,237,3.0,10.0,18,-99.99,,,-99.99,,2013-08-16 13:42:00,
2013-08-16 07:53:00,66.0,22.0,-100.00,WSW,237,3.0,10.0,18,-99.99,,,-99.99,,2013-08-16 13:53:00,
2013-08-16 08:00:00,68.0,23.0,-100.00,North,10,3.0,9.0,18,-99.99,,,-99.99,,2013-08-16 14:00:00,
2013-08-16 08:42:00,68.0,23.0,-100.00,North,10,3.0,9.0,18,-99.99,,,-99.99,,2013-08-16 14:42:00,
2013-08-16 08:52:00,68.0,23.0,-100.00,North,10,3.0,9.0,18,-99.99,,,-99.99,,2013-08-16 14:52:00,
2013-08-16 10:00:00,76.0,37.0,-100.00,WSW,249,3.0,8.0,24,-99.99,,,-99.99,,2013-08-16 16:00:00,
2013-08-16 10:57:00,76.0,37.0,-100.00,WSW,249,3.0,8.0,24,-99.99,,,-99.99,,2013-08-16 16:57:00,
2013-08-16 11:00:00,74.0,38.0,-100.00,NNE,20,3.0,6.0,27,-99.99,,,-99.99,,2013-08-16 17:00:00,
2013-08-16 11:47:00,74.0,38.0,-100.00,NNE,20,3.0,6.0,27,-99.99,,,-99.99,,2013-08-16 17:47:00,
2013-08-16 12:00:00,74.0,34.0,-100.00,ENE,70,4.0,10.0,22,-99.99,,,-99.99,,2013-08-16 18:00:00,
2013-08-16 12:50:00,-999.0,-99.9,-100.00,ENE,70,4.0,10.0,22,-99.99,,,-99.99,,2013-08-16 18:50:00,
2013-08-16 13:00:00,78.0,37.0,-100.00,East,88,3.0,10.0,23,-99.99,,,-99.99,,2013-08-16 19:00:00,
2013-08-16 13:46:00,78.0,37.0,-100.00,East,88,3.0,10.0,23,-99.99,,,-99.99,,2013-08-16 19:46:00,
2013-08-16 13:55:00,78.0,37.0,-100.00,East,88,3.0,10.0,23,-99.99,,,-99.99,,2013-08-16 19:55:00,
2013-08-16 14:00:00,81.0,38.0,-100.00,East,92,4.0,11.0,21,-99.99,,,-99.99,,2013-08-16 20:00:00,
2013-08-16 14:44:00,81.0,38.0,-100.00,East,92,4.0,11.0,21,-99.99,,,-99.99,,2013-08-16 20:44:00,
2013-08-16 14:52:00,81.0,38.0,-100.00,East,92,4.0,11.0,21,-99.99,,,-99.99,,2013-08-16 20:52:00,
2013-08-16 15:00:00,81.0,33.0,-100.00,WSW,251,5.0,14.0,17,-99.99,,,-99.99,,2013-08-16 21:00:00,
2013-08-16 15:40:00,-999.0,-99.9,-100.00,WSW,251,5.0,14.0,-999,-99.99,,,-99.99,,2013-08-16 21:40:00,
2013-08-16 15:54:00,81.0,33.0,-100.00,WSW,251,5.0,14.0,17,-99.99,,,-99.99,,2013-08-16 21:54:00,
2013-08-16 16:00:00,78.0,38.0,-100.00,West,264,8.0,18.0,23,-99.99,,,-99.99,,2013-08-16 22:00:00,
2013-08-16 16:43:00,78.0,38.0,-100.00,West,264,8.0,18.0,23,-99.99,,,-99.99,,2013-08-16 22:43:00,
2013-08-16 16:52:00,78.0,38.0,-100.00,West,264,8.0,18.0,23,-99.99,,,-99.99,,2013-08-16 22:52:00,
2013-08-16 17:00:00,76.0,36.0,-100.00,NW,311,6.0,17.0,23,-99.99,,,-99.99,,2013-08-16 23:00:00,
2013-08-16 17:42:00,76.0,36.0,-100.00,NW,311,6.0,17.0,23,-99.99,,,-99.99,,2013-08-16 23:42:00,
2013-08-16 17:52:00,76.0,36.0,-100.00,NW,311,6.0,17.0,23,-99.99,,,-99.99,,2013-08-16 23:52:00,
2013-08-16 18:00:00,79.0,35.0,-100.00,WNW,288,5.0,13.0,21,-99.99,,,-99.99,,2013-08-17 00:00:00,
2013-08-16 18:42:00,79.0,35.0,-100.00,WNW,288,5.0,13.0,21,-99.99,,,-99.99,,2013-08-17 00:42:00,
2013-08-16 18:52:00,79.0,35.0,-100.00,WNW,288,5.0,13.0,21,-99.99,,,-99.99,,2013-08-17 00:52:00,
2013-08-16 19:00:00,77.0,37.0,-100.00,WSW,256,5.0,13.0,24,-99.99,,,-99.99,,2013-08-17 01:00:00,
2013-08-16 19:42:00,77.0,37.0,-100.00,WSW,256,5.0,13.0,24,-99.99,,,-99.99,,2013-08-17 01:42:00,
2013-08-16 19:52:00,77.0,37.0,-100.00,WSW,256,5.0,13.0,24,-99.99,,,-99.99,,2013-08-17 01:52:00,
2013-08-16 20:00:00,72.0,34.0,-100.00,West,272,8.0,14.0,24,-99.99,,,-99.99,,2013-08-17 02:00:00,
2013-08-16 20:42:00,72.0,34.0,-100.00,West,272,8.0,14.0,24,-99.99,,,-99.99,,2013-08-17 02:42:00,
2013-08-16 20:52:00,72.0,34.0,-100.00,West,272,8.0,14.0,24,-99.99,,,-99.99,,2013-08-17 02:52:00,
2013-08-16 21:00:00,70.0,35.0,-100.00,WSW,240,4.0,9.0,26,-99.99,,,-99.99,,2013-08-17 03:00:00,
2013-08-16 21:43:00,70.0,35.0,-100.00,WSW,240,4.0,9.0,26,-99.99,,,-99.99,,2013-08-17 03:43:00,
2013-08-16 21:53:00,70.0,35.0,-100.00,WSW,240,4.0,9.0,26,-99.99,,,-99.99,,2013-08-17 03:53:00,
2013-08-16 22:00:00,68.0,34.0,-100.00,SW,224,3.0,10.0,27,-99.99,,,-99.99,,2013-08-17 04:00:00,
2013-08-16 22:44:00,68.0,34.0,-100.00,SW,224,3.0,10.0,27,-99.99,,,-99.99,,2013-08-17 04:44:00,
2013-08-16 22:53:00,68.0,34.0,-100.00,SW,224,3.0,10.0,27,-99.99,,,-99.99,,2013-08-17 04:53:00,
2013-08-16 23:00:00,68.0,34.0,-100.00,SW,234,4.0,10.0,27,-99.99,,,-99.99,,2013-08-17 05:00:00,
2013-08-16 23:42:00,68.0,34.0,-100.00,SW,234,4.0,10.0,27,-99.99,,,-99.99,,2013-08-17 05:42:00,
2013-08-16 23:52:00,68.0,34.0,-100.00,SW,234,4.0,10.0,27,-99.99,,,-99.99,,2013-08-17 05:52:00,